Flight Track Log - Related Links

Times and Time Zones

All times are in EDT time to prevent confusion due to time zone crossing. See the PDT4143 flight status page for this flight to view local times or setup timezone preferences in your user account.

Time Position Orientation Groundspeed Altitude Reporting Facility
EDT Latitude Longitude Course Direction KTS MPH feet Rate Location/Type
Sun 01:42:00 PM 37.1266 -79.9967 195° South  Level FlightAware Approximate
Sun 01:43:00 PM 37.0654 -80.0226 195° South  Level FlightAware Approximate
Sun 01:44:00 PM 37.0019 -80.0333 180° South  Level FlightAware Approximate
Sun 01:45:00 PM 36.9372 -80.0311 176° South  Level FlightAware Approximate
Sun 01:46:00 PM 36.8760 -80.0263 176° South  Level FlightAware Approximate
Sun 01:47:00 PM 36.8147 -80.0216 176° South  Level FlightAware Approximate
Sun 01:48:00 PM 36.7535 -80.0169 176° South  Level FlightAware Approximate
Sun 01:49:00 PM 36.6921 -80.0151 177° South  Level FlightAware Approximate
Sun 01:50:00 PM 36.6308 -80.0113 177° South  Level FlightAware Approximate
Sun 01:51:00 PM 36.5695 -80.0075 177° South  Level FlightAware Approximate
Sun 01:52:00 PM 36.5083 -80.0036 177° South  Level FlightAware Approximate
Sun 01:53:00 PM 36.4470 -79.9996 174° South  Level FlightAware Approximate
Sun 01:54:00 PM 36.3859 -79.9920 174° South  Level FlightAware Approximate
Sun 01:55:00 PM 36.3249 -79.9844 174° South  Level FlightAware Approximate
Sun 01:56:00 PM 36.2636 -79.9802 177° South  Level FlightAware Approximate
Sun 01:57:00 PM 36.2023 -79.9766 177° South  Level FlightAware Approximate
Sun 01:58:00 PM 36.1410 -79.9730 177° South  Level FlightAware Approximate
Sun 01:59:00 PM 36.0797 -79.9694 177° South  Level FlightAware Approximate
Sun 02:00:00 PM 36.0237 -79.9808 230° Southwest  Level FlightAware Approximate
Sun 02:01:00 PM 35.9840 -80.0387 230° Southwest  Level FlightAware Approximate
Sun 02:02:00 PM 35.9443 -80.0965 230° Southwest  Level FlightAware Approximate
Sun 02:03:00 PM 35.9081 -80.1490 230° Southwest  Level FlightAware Approximate
Sun 02:04:00 PM 35.8719 -80.2016 230° Southwest  Level FlightAware Approximate
Sun 02:05:00 PM 35.8345 -80.2527 225° Southwest  Level FlightAware Approximate
Sun 02:05:44 PM 35.9564 -80.4011 228° Southwest 224 258 6,000  Level Atlanta Center
Sun 02:06:00 PM 35.7953 -80.3017 225° Southwest  Level FlightAware Approximate
Sun 02:06:45 PM 35.9056 -80.4497 218° Southwest 223 257 6,000  Level Atlanta Center
Sun 02:07:00 PM 35.7570 -80.3518 227° Southwest  Level FlightAware Approximate
Sun 02:07:46 PM 35.8394 -80.4681 193° South 233 268 6,000  Level Atlanta Center
Sun 02:08:00 PM 35.7191 -80.4024 227° Southwest  Level FlightAware Approximate
Sun 02:08:47 PM 35.7794 -80.4883 195° South 228 262 6,000  Level Atlanta Center
Sun 02:09:00 PM 35.6809 -80.4525 219° Southwest  Level FlightAware Approximate
Sun 02:09:48 PM 35.7392 -80.5311 221° Southwest 199 229 6,000  Level Atlanta Center
Sun 02:10:00 PM 35.6416 -80.5012 228° Southwest  Level FlightAware Approximate
Sun 02:10:42 PM 35.7050 -80.5839 231° Southwest 210 242 6,000  Level Atlanta Center
Sun 02:11:00 PM 35.6044 -80.5524 228° Southwest  Level FlightAware Approximate
Sun 02:11:37 PM 35.6731 -80.6286 229° Southwest 197 227 6,000  Level Atlanta Center
Sun 02:12:56 PM 35.5986 -80.6597 199° South 219 252 6,000  Level Atlanta Center
Sun 02:13:56 PM 35.5411 -80.6850 200° South 226 260 6,000  Level Atlanta Center
Sun 02:14:45 PM 35.4958 -80.7075 202° Southwest 196 226 6,000 -517 Level Atlanta Center
Sun 02:15:52 PM 35.4422 -80.7325 201° Southwest 192 221 5,000 -938 Descending Atlanta Center
Sun 02:16:53 PM 35.3906 -80.7575 202° Southwest 204 235 4,000 -492 Descending Atlanta Center
Sun 02:17:54 PM 35.3453 -80.7797 202° Southwest 173 199 4,000  Level Atlanta Center

Login

Don't have an account? Register now (free) for customized features, flight alerts, and more!